Knox, IN

4:08 PM CDT on June 24, 2017 (GMT -0500)
Starke County

Weather History for KOXI - January, 2013

Change the Weather History Date:

Monday, January 21, 2013

  Actual Average (KRCR) Record (KRCR)
Temperature  
Mean Temperature 11 °F -  
Max Temperature 17 °F 29 °F 62 °F (2017)
Min Temperature 4 °F 13 °F 8 °F (2014)
Degree Days  
Heating Degree Days 54    
Moisture  
Dew Point 0 °F    
Average Humidity 60    
Maximum Humidity 83    
Minimum Humidity 48    
Precipitation  
Precipitation 0.00 in - - ()
Sea Level Pressure  
Sea Level Pressure 30.15 in    
Wind  
Wind Speed 13 mph (West)    
Max Wind Speed 22 mph    
Max Gust Speed 29 mph    
Visibility 9 miles    
Events      
Averages and records for this station are not official NWS values.
T = Trace of Precipitation, MM = Missing Value Source: NWS Daily Summary

Daily Weather History Graph

Daily Weather History Graph

Search for Another Location

Airport or City:

Trip Planner

Search our weather history database for the weather conditions in past years. The results will help you decide how hot, cold, wet, or windy it might be!

Date:

Astronomy

Jan. 21, 2013 Rise Set
Actual Time 7:06 AM CST 4:49 PM CST
Civil Twilight 6:36 AM CST 5:19 PM CST
Nautical Twilight 6:03 AM CST 5:53 PM CST
Astronomical Twilight 5:30 AM CST 6:26 PM CST
Moon 12:29 PM CST (1/21) 2:34 AM CST (1/21)
Length of Visible Light 10h 42m
Length of Day
9h 42m
Waxing Gibbous, 75% of the Moon is Illuminated
Jan 21
Waxing Gibbous
Jan 26
Full
Feb 3
Last Quarter
Feb 10
New
Feb 17
First Quarter

Hourly Weather History & Observations

Time (CST) Temp. Windchill Dew Point Humidity Pressure Visibility Wind Dir Wind Speed Gust Speed Precip Events Conditions
12:15 AM 17.4 °F 4.7 °F 4.1 °F 56% 30.16 in 10.0 mi West 11.5 mph - N/A   Mostly Cloudy
12:35 AM 17.6 °F 5.0 °F 3.7 °F 55% 30.16 in 10.0 mi West 11.5 mph - N/A   Overcast
12:55 AM 17.2 °F 5.2 °F 3.4 °F 55% 30.15 in 10.0 mi WNW 10.4 mph - N/A   Overcast
1:15 AM 16.9 °F 5.5 °F 3.4 °F 55% 30.16 in 10.0 mi WNW 9.2 mph - N/A   Overcast
1:35 AM 16.5 °F 5.1 °F 3.0 °F 55% 30.16 in 10.0 mi WNW 9.2 mph - N/A   Overcast
1:55 AM 16.5 °F 8.1 °F 3.0 °F 55% 30.15 in 10.0 mi West 5.8 mph - N/A   Overcast
2:15 AM 16.7 °F 7.2 °F 4.1 °F 58% 30.15 in 10.0 mi West 6.9 mph - N/A   Overcast
2:35 AM 16.5 °F 4.3 °F 4.3 °F 59% 30.14 in 10.0 mi West 10.4 mph - N/A   Overcast
2:55 AM 16.3 °F 4.9 °F 4.1 °F 59% 30.13 in 10.0 mi West 9.2 mph - N/A   Overcast
3:15 AM 16.2 °F 3.9 °F 4.5 °F 60% 30.13 in 10.0 mi West 10.4 mph - N/A   Overcast
3:35 AM 15.6 °F 3.2 °F 4.8 °F 62% 30.12 in 10.0 mi West 10.4 mph - N/A   Scattered Clouds
3:55 AM 15.4 °F 3.0 °F 5.2 °F 64% 30.12 in 10.0 mi West 10.4 mph - N/A   Clear
4:15 AM 15.1 °F 0.5 °F 5.4 °F 65% 30.12 in 10.0 mi West 13.8 mph - N/A   Clear
4:35 AM 14.9 °F 1.6 °F 5.2 °F 65% 30.12 in 10.0 mi West 11.5 mph 17.3 mph N/A   Scattered Clouds
4:55 AM 14.9 °F 2.3 °F 5.2 °F 65% 30.12 in 10.0 mi WNW 10.4 mph - N/A   Overcast
5:15 AM 14.4 °F 0.9 °F 3.9 °F 63% 30.11 in 10.0 mi West 11.5 mph - N/A   Overcast
5:35 AM 13.8 °F -1.1 °F 2.7 °F 61% 30.11 in 10.0 mi West 13.8 mph - N/A   Overcast
5:55 AM 13.3 °F -0.5 °F 2.3 °F 62% 30.12 in 10.0 mi West 11.5 mph - N/A   Scattered Clouds
6:15 AM 13.1 °F -1.4 °F 2.8 °F 64% 30.12 in 10.0 mi West 12.7 mph 19.6 mph N/A   Mostly Cloudy
6:35 AM 13.1 °F -0.7 °F 3.6 °F 66% 30.12 in 10.0 mi West 11.5 mph 17.3 mph N/A   Overcast
6:55 AM 13.1 °F 0.1 °F 4.6 °F 69% 30.12 in 7.0 mi West 10.4 mph - N/A   Overcast
7:15 AM 12.7 °F -1.1 °F 5.5 °F 73% 30.11 in 4.0 mi West 11.5 mph - N/A   Overcast
7:35 AM 12.4 °F -2.9 °F 5.9 °F 75% 30.12 in 5.0 mi West 13.8 mph - N/A   Overcast
7:55 AM 12.4 °F -2.9 °F 6.3 °F 76% 30.12 in 3.0 mi West 13.8 mph 17.3 mph N/A   Overcast
8:15 AM 12.0 °F -2.7 °F 7.3 °F 81% 30.13 in 4.0 mi West 12.7 mph - N/A   Mostly Cloudy
8:35 AM 12.2 °F -3.1 °F 7.2 °F 80% 30.12 in 7.0 mi West 13.8 mph - N/A   Mostly Cloudy
8:55 AM 11.7 °F -1.7 °F 6.4 °F 80% 30.12 in 0.8 mi WNW 10.4 mph - N/A   Overcast
9:15 AM 11.8 °F -6.3 °F 7.5 °F 83% 30.13 in 3.0 mi West 19.6 mph 25.3 mph N/A   Overcast
9:35 AM 13.1 °F -0.7 °F 5.5 °F 72% 30.13 in 10.0 mi West 11.5 mph - N/A   Scattered Clouds
9:55 AM 13.8 °F -1.7 °F 6.1 °F 71% 30.13 in 2.5 mi WNW 15.0 mph 23.0 mph N/A   Mostly Cloudy
10:15 AM 12.7 °F -3.6 °F 7.0 °F 78% 30.13 in 5.0 mi West 16.1 mph 21.9 mph N/A   Overcast
10:35 AM 13.1 °F -3.7 °F 5.2 °F 71% 30.13 in 5.0 mi West 17.3 mph 25.3 mph N/A   Scattered Clouds
10:55 AM 13.1 °F -3.1 °F 4.5 °F 68% 30.13 in 10.0 mi West 16.1 mph 21.9 mph N/A   Mostly Cloudy
11:15 AM 13.1 °F -4.2 °F 3.0 °F 64% 30.13 in 10.0 mi West 18.4 mph - N/A   Mostly Cloudy
11:35 AM 11.5 °F -5.2 °F 1.0 °F 63% 30.12 in 10.0 mi West 16.1 mph 23.0 mph N/A   Scattered Clouds
11:55 AM 12.4 °F -6.4 °F 1.0 °F 61% 30.12 in 10.0 mi West 21.9 mph 28.8 mph N/A   Scattered Clouds
12:15 PM 12.9 °F -4.4 °F 0.7 °F 58% 30.12 in 10.0 mi West 18.4 mph 25.3 mph N/A   Scattered Clouds
12:35 PM 12.6 °F -4.9 °F -1.7 °F 53% 30.12 in 10.0 mi West 18.4 mph 28.8 mph N/A   Clear
12:55 PM 12.2 °F -6.7 °F -2.4 °F 52% 30.12 in 10.0 mi West 21.9 mph 26.5 mph N/A   Clear
1:15 PM 12.2 °F -6.7 °F -3.1 °F 50% 30.13 in 10.0 mi West 21.9 mph 26.5 mph N/A   Clear
1:35 PM 12.2 °F -6.3 °F -3.3 °F 50% 30.13 in 10.0 mi West 20.7 mph 28.8 mph N/A   Scattered Clouds
1:55 PM 12.0 °F -5.1 °F -2.7 °F 52% 30.13 in 10.0 mi West 17.3 mph 24.2 mph N/A   Scattered Clouds
2:15 PM 12.0 °F -5.1 °F -2.7 °F 52% 30.14 in 10.0 mi West 17.3 mph - N/A   Mostly Cloudy
2:35 PM 12.0 °F -6.9 °F -2.9 °F 51% 30.14 in 10.0 mi West 21.9 mph 27.6 mph N/A   Mostly Cloudy
2:55 PM 11.5 °F -6.3 °F -3.3 °F 52% 30.15 in 10.0 mi WNW 18.4 mph 24.2 mph N/A   Scattered Clouds
3:15 PM 11.3 °F -6.0 °F -4.0 °F 50% 30.15 in 10.0 mi West 17.3 mph 24.2 mph N/A   Clear
3:35 PM 11.1 °F -4.5 °F -4.9 °F 49% 30.16 in 10.0 mi West 13.8 mph 23.0 mph N/A   Clear
3:55 PM 10.9 °F -6.5 °F -5.4 °F 48% 30.16 in 10.0 mi West 17.3 mph 23.0 mph N/A   Clear
4:15 PM 10.6 °F -5.2 °F -5.6 °F 48% 30.16 in 10.0 mi West 13.8 mph 23.0 mph N/A   Clear
4:35 PM 10.0 °F -5.2 °F -5.6 °F 49% 30.17 in 10.0 mi West 12.7 mph 19.6 mph N/A   Clear
4:55 PM 9.3 °F -6.8 °F -5.3 °F 52% 30.17 in 10.0 mi West 13.8 mph 17.3 mph N/A   Clear
5:15 PM 9.1 °F -7.7 °F -5.1 °F 53% 30.17 in 10.0 mi West 15.0 mph 18.4 mph N/A   Clear
5:35 PM 9.0 °F -7.3 °F -5.3 °F 53% 30.18 in 10.0 mi West 13.8 mph 19.6 mph N/A   Clear
5:55 PM 8.6 °F -8.9 °F -5.6 °F 53% 30.18 in 10.0 mi West 16.1 mph 23.0 mph N/A   Clear
6:15 PM 8.4 °F -8.6 °F -5.8 °F 52% 30.18 in 10.0 mi West 15.0 mph - N/A   Clear
6:35 PM 8.2 °F -7.5 °F -5.4 °F 54% 30.19 in 10.0 mi West 12.7 mph 18.4 mph N/A   Clear
6:55 PM 8.1 °F -7.7 °F -5.4 °F 54% 30.19 in 10.0 mi West 12.7 mph 20.7 mph N/A   Clear
7:15 PM 7.7 °F -11.2 °F -5.3 °F 56% 30.19 in 10.0 mi West 18.4 mph 21.9 mph N/A   Clear
7:35 PM 7.7 °F -11.2 °F -5.6 °F 55% 30.19 in 10.0 mi West 18.4 mph 23.0 mph N/A   Clear
8:15 PM 7.2 °F -10.2 °F -5.8 °F 55% 30.20 in 10.0 mi West 15.0 mph 21.9 mph N/A   Clear
8:35 PM 7.0 °F -9.8 °F -5.8 °F 56% 30.21 in 10.0 mi West 13.8 mph 23.0 mph N/A   Clear
8:55 PM 6.8 °F -10.7 °F -6.0 °F 56% 30.22 in 10.0 mi West 15.0 mph 18.4 mph N/A   Clear
9:15 PM 6.8 °F -11.3 °F -6.0 °F 56% 30.22 in 10.0 mi West 16.1 mph - N/A   Clear
9:35 PM 6.4 °F -10.5 °F -6.0 °F 57% 30.22 in 10.0 mi West 13.8 mph - N/A   Clear
9:55 PM 6.1 °F -10.2 °F -6.0 °F 58% 30.22 in 10.0 mi West 12.7 mph - N/A   Clear
10:15 PM 5.7 °F -12.0 °F -5.8 °F 59% 30.23 in 10.0 mi West 15.0 mph 19.6 mph N/A   Clear
10:35 PM 5.7 °F -12.0 °F -5.8 °F 59% 30.23 in 10.0 mi West 15.0 mph 19.6 mph N/A   Clear
10:55 PM 5.4 °F -11.1 °F -5.8 °F 60% 30.23 in 10.0 mi West 12.7 mph - N/A   Clear
11:15 PM 5.0 °F -11.6 °F -5.8 °F 61% 30.23 in 10.0 mi West 12.7 mph 19.6 mph N/A   Clear
11:35 PM 5.0 °F -11.6 °F -5.8 °F 61% 30.24 in 10.0 mi West 12.7 mph 19.6 mph N/A   Clear
11:55 PM 4.8 °F -12.5 °F -5.6 °F 62% 30.23 in 10.0 mi West 13.8 mph - N/A   Clear